This is the latest recevied weather packets stored in our database for station/object KB4MLW-13. If no packets are shown the sender has not sent any weather packets the latest 10 day(s).
| Time | Temp. | Humidity | Pressure | Rain* | Wind** | Luminosity | Snow |
|---|---|---|---|---|---|---|---|
| 1788293788 | 33.33° C | 67% | 1000.8 hPa | 0 mm | - | - | - |
| 1788293728 | 33.33° C | 63% | 1000.7 hPa | 0 mm | - | - | - |
| 1788293668 | 33.33° C | 64% | 1000.6 hPa | 0 mm | - | - | - |
| 1788293583 | 33.33° C | 62% | 1000.7 hPa | 0 mm | - | - | - |
| 1788293488 | 33.89° C | 63% | 1000.8 hPa | 0 mm | - | - | - |
| 1788293399 | 33.89° C | 61% | 1000.6 hPa | 0 mm | - | - | - |
| 1788293339 | 33.89° C | 58% | 1000.8 hPa | 0 mm | - | - | - |
| 1788293278 | 33.89° C | 57% | 1000.6 hPa | 0 mm | - | - | - |
| 1788293218 | 33.89° C | 57% | 1000.6 hPa | 0 mm | - | - | - |
| 1788293158 | 33.89° C | 59% | 1000.8 hPa | 0 mm | - | - | - |
| 1788293098 | 33.89° C | 61% | 1000.8 hPa | 0 mm | - | - | - |
| 1788293009 | 33.89° C | 59% | 1000.7 hPa | 0 mm | - | - | - |
| 1788292919 | 33.89° C | 57% | 1000.9 hPa | 0 mm | - | - | - |
| 1788292858 | 33.89° C | 61% | 1000.9 hPa | 0 mm | - | - | - |
| 1788292798 | 34.44° C | 61% | 1000.9 hPa | 0 mm | - | - | - |
| 1788292738 | 34.44° C | 60% | 1000.7 hPa | 0 mm | - | - | - |
| 1788292649 | 34.44° C | 56% | 1000.9 hPa | 0 mm | - | - | - |
| 1788292588 | 34.44° C | 57% | 1000.9 hPa | 0 mm | - | - | - |
| 1788292528 | 34.44° C | 57% | 1001 hPa | 0 mm | - | - | - |
| 1788292468 | 34.44° C | 56% | 1001 hPa | 0 mm | - | - | - |
| 1788292408 | 34.44° C | 55% | 1001 hPa | 0 mm | - | - | - |
| 1788292319 | 34.44° C | 57% | 1000.9 hPa | 0 mm | - | - | - |
| 1788292229 | 34.44° C | 59% | 1001 hPa | 0 mm | - | - | - |
| 1788292168 | 34.44° C | 58% | 1000.9 hPa | 0 mm | - | - | - |
| 1788292108 | 34.44° C | 57% | 1001 hPa | 0 mm | - | - | - |
* Rain latest hour (hover to see other rain measurements)
** Current wind speed in m/s (hover to see current wind gust speed)